EW5673 Weather Reports


Display with metric or nautical units.
time (UTC)temp
F
wind
direction
speed
MPH
gust
MPH
rain 1hr
in
rain 24hr
in
rain mn
in
humidity
%
barometer
mb
20260507064553 52 0 2.0 5.0 0.00 0.00 0.00 81 1020.9
20260507063051 51 346 0.0 5.0 0.00 0.00 0.00 85 1020.8
20260507061552 50 355 2.0 5.0 0.00 0.00 0.00 86 1020.8
20260507060057 49 9 1.0 5.0 0.00 0.00 0.00 87 1020.6
20260507054546 49 355 2.0 4.0 0.00 0.00 0.00 87 1020.6
20260507053051 49 5 2.0 5.0 0.00 0.00 0.00 87 1020.5
20260507051549 49 360 1.0 4.0 0.00 0.00 0.00 88 1020.4
20260507050051 48 360 1.0 3.0 0.00 0.00 0.00 88 1020.2
20260507044551 48 360 1.0 2.0 0.00 0.00 0.00 87 1020.1
20260507043055 48 0 0.0 2.0 0.00 0.00 0.00 87 1020.0
20260507041550 49 360 1.0 4.0 0.00 0.00 0.00 86 1019.8
20260507040054 49 352 1.0 4.0 0.00 0.00 0.00 86 1019.6
20260507034553 49 10 1.0 4.0 0.00 0.00 0.00 86 1019.5
20260507033054 49 0 1.0 3.0 0.00 0.00 0.00 86 1019.4
20260507031552 49 5 2.0 4.0 0.00 0.00 0.00 86 1019.3
20260507030052 49 360 2.0 5.0 0.00 0.00 0.00 87 1019.3
20260507024602 49 80 0.0 2.0 0.00 0.00 0.00 87 1019.3
20260507023057 49 0 0.0 0.0 0.00 0.00 0.00 87 1019.2
20260507021556 49 0 0.0 0.0 0.00 0.00 0.00 87 1019.1
20260507020107 49 0 0.0 0.0 0.00 0.00 0.00 87 1018.9
20260507014607 49 0 0.0 0.0 0.00 0.00 0.00 87 1018.9
20260507013055 49 0 0.0 0.0 0.00 0.00 0.00 87 1018.9
20260507011558 49 0 0.0 0.0 0.00 0.00 0.00 86 1018.9
20260507010053 49 0 0.0 0.0 0.00 0.00 0.00 86 1018.9
20260507004557 49 0 0.0 0.0 0.00 0.00 0.00 86 1018.8
20260507003052 50 0 0.0 0.0 0.00 0.00 0.00 85 1018.7
20260507001557 50 0 0.0 0.0 0.00 0.00 0.00 84 1018.6
20260507000054 50 0 0.0 0.0 0.00 0.00 0.00 84 1018.6
20260506234600 50 0 0.0 0.0 0.00 0.00 0.00 83 1018.6
20260506233052 50 0 0.0 0.0 0.00 0.00 0.00 83 1018.5
20260506231556 50 0 0.0 0.0 0.00 0.00 0.00 82 1018.4
20260506230059 51 0 0.0 0.0 0.00 0.00 0.00 82 1018.3
20260506224551 51 0 0.0 0.0 0.00 0.00 0.00 81 1018.3
20260506223056 51 0 0.0 0.0 0.00 0.00 0.00 80 1018.2
20260506221550 51 0 0.0 0.0 0.00 0.00 0.00 79 1018.2
20260506220052 52 0 0.0 0.0 0.00 0.00 0.00 76 1018.1
20260506214552 52 0 0.0 0.0 0.00 0.00 0.00 75 1018.0
20260506213104 52 0 0.0 1.0 0.00 0.00 0.00 74 1017.9
20260506211603 52 0 0.0 2.0 0.00 0.00 0.00 73 1017.9
20260506210055 52 0 0.0 2.0 0.00 0.00 0.00 73 1017.7
20260506204557 52 0 0.0 3.0 0.00 0.00 0.00 73 1017.7
20260506203053 52 0 0.0 3.0 0.00 0.00 0.00 72 1017.6
20260506201558 52 108 0.0 3.0 0.00 0.00 0.00 71 1017.5
20260506200058 53 150 0.0 2.0 0.00 0.00 0.00 71 1017.4
20260506194604 53 78 1.0 3.0 0.00 0.00 0.00 70 1017.0
20260506193053 53 0 0.0 3.0 0.00 0.00 0.00 70 1017.0
20260506191553 53 288 1.0 4.0 0.00 0.00 0.00 70 1016.8
20260506190056 53 30 1.0 4.0 0.00 0.00 0.00 70 1016.8
20260506184607 53 239 1.0 5.0 0.00 0.00 0.00 70 1016.5
20260506183103 53 333 2.0 8.0 0.00 0.00 0.00 69 1016.4
20260506181554 54 24 2.0 9.0 0.00 0.00 0.00 67 1016.2
20260506180055 54 328 4.0 9.0 0.00 0.00 0.00 65 1015.8
20260506174555 55 12 2.0 8.0 0.00 0.00 0.00 67 1015.8
20260506173054 55 5 5.0 11.0 0.00 0.00 0.00 63 1015.7
20260506171555 56 355 3.0 9.0 0.00 0.00 0.00 61 1015.6
20260506170107 57 360 4.0 10.0 0.00 0.00 0.00 63 1015.4
20260506164556 56 26 4.0 10.0 0.00 0.00 0.00 64 1015.2
20260506163106 56 12 4.0 10.0 0.00 0.00 0.00 66 1015.0
20260506161550 57 355 5.0 11.0 0.00 0.00 0.00 65 1014.8
20260506160056 58 5 5.0 11.0 0.00 0.00 0.00 64 1014.9
20260506154555 57 329 4.0 8.0 0.00 0.00 0.00 69 1014.9
20260506153054 57 338 4.0 7.0 0.00 0.00 0.00 69 1015.0
20260506151555 56 332 4.0 8.0 0.00 0.00 0.00 70 1014.9
20260506150046 56 339 4.0 10.0 0.00 0.00 0.00 69 1015.0
20260506144600 57 338 5.0 10.0 0.00 0.00 0.00 67 1014.9
20260506143050 57 336 6.0 12.0 0.00 0.00 0.00 67 1014.7
20260506141554 56 333 4.0 9.0 0.00 0.00 0.00 74 1014.9
20260506140054 57 333 4.0 10.0 0.00 0.00 0.00 74 1014.9
20260506134551 57 344 4.0 10.0 0.00 0.00 0.00 72 1014.9
20260506133052 57 328 5.0 10.0 0.00 0.00 0.00 68 1014.9
20260506131552 57 343 4.0 9.0 0.00 0.00 0.00 69 1014.8
20260506130059 57 342 5.0 9.0 0.00 0.00 0.00 67 1014.6
20260506124552 58 350 5.0 13.0 0.00 0.00 0.00 69 1014.6
20260506123052 58 9 5.0 12.0 0.00 0.00 0.00 70 1014.7
20260506121554 57 329 6.0 10.0 0.00 0.00 0.00 70 1014.5
20260506120047 58 329 7.0 11.0 0.00 0.00 0.00 72 1014.5
20260506114550 59 336 7.0 11.0 0.00 0.00 0.00 71 1014.5
20260506113052 59 330 6.0 12.0 0.00 0.00 0.00 71 1014.4
20260506111551 59 348 6.0 12.0 0.00 0.00 0.00 74 1014.4
20260506110050 57 350 6.0 12.0 0.00 0.00 0.00 74 1014.5
20260506104553 57 330 6.0 12.0 0.00 0.00 0.00 75 1014.5
20260506103053 57 321 5.0 13.0 0.00 0.00 0.00 80 1014.5
20260506101551 57 349 7.0 12.0 0.00 0.00 0.00 80 1014.5
20260506100050 56 336 5.0 11.0 0.00 0.00 0.00 83 1014.5
20260506094551 55 311 7.0 11.0 0.00 0.00 0.00 83 1014.4
20260506093052 54 344 5.0 10.0 0.00 0.00 0.00 86 1014.4
20260506091559 53 344 5.0 10.0 0.00 0.00 0.00 87 1014.4
20260506090056 53 340 5.0 9.0 0.00 0.00 0.00 90 1014.3
20260506084612 52 332 4.0 8.0 0.00 0.00 0.00 92 1014.2
20260506083056 50 336 4.0 8.0 0.00 0.00 0.00 93 1014.3
20260506081556 49 329 2.0 5.0 0.00 0.00 0.00 93 1014.1
20260506073100 49 330 1.0 4.0 0.00 0.00 0.00 93 1014.2
20260506071553 48 333 2.0 4.0 0.00 0.00 0.00 93 1014.1